Wind_Speed
8 12 10 11 12 11 14 13 13 13 12 12 13 14 14 14 14 15 16 17 17 20 25 19 17 19 19 19 19 19 19 18 18 18 17 15 14 13 12 12 11 11 10
8 6 8 10 10 12 11 13 14 14 16 16 17 17 17 18 16 16 17 18 17 20 21 24 21 19 20 21 22 22 22 22 21 20 20 18 18 15 14 14 14 14 13
7 6 8 11 10 9 9 12 13 16 17 18 20 19 20 21 21 21 22 21 18 20 20 20 23 24 23 23 23 23 24 23 22 21 21 20 21 20 18 16 16 16 16
7 6 7 9 8 7 8 9 12 16 16 15 17 17 18 18 21 21 21 23 24 21 24 22 22 24 25 26 26 27 24 24 25 24 24 22 22 23 22 21 19 18 18
7 8 8 8 7 8 9 9 11 12 12 12 14 15 17 18 19 20 21 23 25 23 23 21 27 24 24 26 23 26 27 27 26 26 26 26 25 24 24 25 23 21 20
10 9 9 8 10 11 11 10 12 13 14 13 15 17 17 17 18 19 20 21 20 22 22 22 21 26 24 28 29 24 23 23 25 25 24 25 27 27 26 26 26 24 23
13 14 12 11 13 13 14 13 12 14 14 12 12 13 13 14 16 17 21 21 21 22 20 20 20 24 27 28 27 20 29 28 24 24 24 25 25 28 29 27 27 26 26
12 11 11 12 12 14 12 12 13 12 14 12 5 3 3 5 4 5 8 15 17 17 18 20 19 21 24 25 27 27 31 26 23 24 25 26 26 27 28 29 29 26 26
12 16 14 11 10 11 13 12 11 12 15 15 10 6 1 3 5 4 3 6 8 14 18 16 19 18 20 22 23 22 18 19 28 30 28 27 26 27 30 29 29 28 27
4 4 8 10 9 10 10 11 10 12 13 12 6 8 11 7 1 4 0 6 13 9 11 13 17 18 18 20 20 22 20 21 24 27 28 27 28 28 29 30 29 28 28
10 12 9 6 6 6 6 9 10 10 8 10 10 6 6 8 8 5 4 3 9 10 11 12 13 14 16 17 18 19 19 19 21 23 28 29 24 27 28 30 32 30 27
3 3 2 2 2 3 4 3 4 4 5 6 7 9 8 5 3 4 3 5 7 13 10 11 16 18 21 20 20 18 17 19 20 21 23 27 27 25 27 29 29 31 30
1 7 7 7 6 6 6 6 5 4 4 4 4 4 4 7 8 9 5 5 4 4 6 12 15 18 22 20 23 24 24 22 22 17 17 20 21 19 24 29 27 27 29
1 3 7 9 9 8 7 6 5 5 6 5 5 4 5 7 7 7 6 5 4 3 5 8 6 13 18 19 20 16 18 21 18 16 13 15 20 20 16 21 26 26 28
2 4 7 8 8 7 6 5 4 4 5 5 6 6 5 5 7 7 7 8 4 3 3 3 3 6 10 14 16 14 16 19 18 20 22 19 12 12 15 17 21 27 28
3 3 4 5 6 6 6 5 4 4 4 5 5 4 5 6 6 8 8 6 7 9 4 3 10 17 18 16 17 19 20 20 19 18 17 15 13 14 16 17 19 23 26
2 2 3 4 5 5 6 6 6 7 7 7 6 7 8 9 9 9 8 7 7 8 6 11 14 15 17 18 17 17 18 19 18 15 15 17 17 16 18 19 18 23 23
2 2 3 4 4 6 7 9 11 11 10 10 9 9 9 9 9 9 8 9 10 9 10 11 16 14 14 14 15 17 16 15 17 17 17 18 17 16 17 20 22 23 23
1 0 2 1 3 7 10 13 13 12 9 8 8 8 8 8 8 8 8 9 9 10 11 12 12 15 15 14 14 15 14 14 13 14 15 16 17 19 20 21 24 22 26
2 0 3 3 3 7 11 11 12 9 8 9 9 10 9 7 7 7 7 7 7 9 9 10 13 16 16 16 14 11 15 14 15 13 15 15 15 17 19 20 23 26 31
1 3 2 2 6 6 8 11 12 11 11 10 10 10 12 11 8 6 6 7 8 9 10 11 11 12 16 15 15 12 15 17 17 16 11 10 11 12 16 20 22 23 24
2 2 2 2 3 4 5 8 11 12 12 11 9 9 10 12 13 12 9 7 7 9 11 11 13 12 16 16 15 15 14 11 4 4 6 19 16 16 14 14 14 18 22
5 5 5 4 4 1 3 8 11 12 13 10 9 8 10 13 14 15 12 10 8 4 5 8 10 8 12 14 17 17 10 7 8 14 14 13 11 13 9 10 12 13 15
6 9 6 3 3 3 5 7 9 12 13 10 8 7 11 13 13 12 12 12 13 9 5 3 3 4 7 11 12 13 10 9 10 6 10 4 10 9 11 8 6 6 9
8 7 8 8 7 7 8 8 9 12 13 11 7 7 11 12 10 7 11 13 12 15 13 12 9 8 7 9 12 7 6 5 3 2 10 10 5 12 12 6 6 8 12
9 6 9 10 8 8 8 6 8 12 14 12 7 8 10 10 9 8 10 13 14 11 9 7 8 10 11 10 10 12 9 5 4 4 14 12 7 6 5 3 10 12 13
Wind_Direction
240 220 220 231 235 234 238 239 244 247 249 247 252 256 260 257 254 254 246 256 254 243 241 242 236 235 232 227 228 230 230 226 222 218 219 228 225 225 226 229 231 230 224
245 252 227 233 236 245 237 250 255 264 258 255 256 260 265 262 261 262 254 252 263 255 249 242 244 242 240 238 238 233 232 233 232 230 225 223 231 236 233 234 235 239 240
230 241 244 255 246 253 249 251 257 260 260 258 259 259 264 266 258 257 255 260 258 245 241 239 243 242 244 247 243 243 243 240 243 244 239 234 229 237 238 239 242 241 244
221 234 246 258 270 250 247 257 265 267 258 260 263 264 265 263 261 258 257 254 255 248 240 239 243 243 245 248 248 243 246 243 242 244 243 241 239 236 237 239 240 244 244
233 241 246 258 251 250 261 266 269 276 270 275 276 275 271 270 260 259 259 253 252 250 251 247 242 245 246 247 243 243 244 243 244 245 245 245 242 239 237 240 241 243 245
244 245 253 259 264 256 259 261 267 270 277 280 285 284 282 278 270 263 257 256 256 252 257 257 246 246 250 248 245 242 244 244 247 248 249 248 248 244 240 238 238 243 244
248 247 247 244 249 258 268 258 276 263 278 287 291 306 305 286 271 269 258 258 259 262 254 257 252 246 250 254 256 253 257 248 249 252 250 249 248 250 247 243 240 241 244
242 253 249 248 247 253 263 273 264 262 277 283 272 312 332 322 323 298 260 256 258 262 260 251 251 258 255 256 258 245 249 248 251 256 256 255 255 252 249 246 244 242 243
253 255 258 255 262 249 262 255 267 261 275 270 258 241 296 254 329 347 322 307 277 247 253 251 242 250 259 261 264 264 259 251 245 253 254 255 254 256 252 248 246 245 244
214 254 266 265 269 269 274 272 276 270 280 292 295 258 256 260 244 319 331 302 300 288 268 255 237 254 262 266 259 254 249 257 256 244 251 255 248 247 250 250 246 244 244
260 304 292 276 286 278 284 280 264 264 280 296 296 292 278 271 267 230 294 310 304 288 270 273 256 244 246 269 253 256 259 258 260 263 255 249 251 241 245 251 249 246 245
251 312 60 84 85 53 15 353 306 295 291 289 288 276 261 266 259 227 245 278 263 302 274 268 254 247 251 260 249 246 252 274 271 282 258 258 249 255 242 247 252 249 248
314 337 9 32 25 13 4 2 2 7 5 351 344 336 315 308 298 287 256 268 259 279 277 269 264 259 257 262 258 253 254 264 280 283 263 258 256 262 249 245 247 253 251
104 291 317 332 339 337 329 325 341 353 345 343 353 2 353 348 330 322 284 270 294 267 259 250 276 283 266 271 274 275 265 259 275 269 276 257 252 262 262 245 245 247 250
307 298 310 322 326 333 350 9 10 357 347 353 350 348 355 360 1 346 317 296 256 293 286 300 264 305 316 295 282 285 286 282 283 266 272 276 254 256 263 259 249 248 248
331 341 360 11 9 9 5 8 19 24 11 15 7 357 347 344 338 349 352 326 288 258 276 292 294 299 301 298 289 286 290 293 297 290 276 264 273 281 278 271 256 254 253
22 30 32 25 12 15 26 33 28 14 8 353 341 327 322 321 315 319 326 330 330 296 274 298 309 313 301 299 298 295 297 294 294 300 284 278 287 269 273 279 270 263 257
333 9 13 11 59 37 40 22 8 359 353 347 338 332 330 323 315 310 304 303 311 308 277 282 311 321 319 319 307 302 305 301 297 292 286 281 279 271 261 255 262 267 266
271 60 10 81 65 35 13 1 355 349 354 1 7 360 350 338 338 334 322 316 309 308 297 277 293 309 317 322 322 318 316 309 298 295 290 284 276 271 265 259 256 252 261
226 39 77 68 20 7 6 2 360 11 23 24 23 17 9 355 345 337 331 321 318 319 318 293 293 303 312 318 318 317 315 315 313 306 294 286 279 273 270 265 251 251 248
332 307 293 40 25 12 358 4 20 24 21 19 23 40 44 42 43 21 348 322 308 305 305 304 296 299 308 322 323 318 308 312 310 308 303 302 285 280 272 266 260 251 262
348 5 294 280 352 325 355 15 23 23 19 12 14 33 32 21 17 10 359 344 331 316 301 297 295 302 306 311 320 319 308 308 317 319 330 303 305 297 289 289 289 276 257
294 284 302 270 248 314 6 9 11 10 11 12 19 9 357 3 5 7 13 12 8 16 341 301 296 320 308 312 310 307 310 299 283 306 317 305 318 301 312 305 296 290 288
298 284 305 326 298 307 315 338 354 354 357 2 3 358 348 351 359 6 18 26 34 30 8 324 304 2 1 341 303 289 290 295 308 331 8 296 344 347 337 340 347 26 27
304 289 283 292 282 273 283 302 330 339 343 354 3 8 359 359 2 14 17 20 27 53 65 84 64 52 29 17 18 340 280 290 296 344 22 349 336 344 332 344 52 19 6
300 301 294 276 266 266 260 286 323 334 334 345 1 4 7 8 22 14 9 11 12 18 21 32 42 54 56 48 40 39 33 21 360 19 357 352 337 354 329 346 1 10 3
Height
825 825 826 827 828 829 829 829 830 830 830 830 830 830 831 832 832 832 832 833 833 832 833 836 837 837 839 841 843 844 846 847 848 849 851 853 854 856 857 859 861 862 863
824 824 825 826 826 827 828 828 829 829 829 829 829 829 829 829 829 829 829 830 830 831 832 833 835 836 837 838 839 841 842 843 846 846 848 850 852 854 855 857 858 861 862
823 824 825 825 825 826 826 826 827 827 827 827 827 826 827 826 826 826 827 827 827 828 829 829 830 832 834 834 836 837 839 841 842 843 846 847 849 852 853 854 855 857 860
821 822 823 824 825 825 825 824 825 825 824 824 824 824 823 823 824 823 823 823 822 823 824 826 826 828 828 829 831 832 834 836 838 839 840 842 844 847 849 851 852 854 857
821 821 822 823 824 824 824 824 823 823 822 821 821 821 821 820 819 819 819 819 818 819 820 821 822 823 823 824 823 825 827 830 833 835 836 838 839 841 843 846 849 850 853
821 820 821 821 822 822 821 822 822 822 821 820 819 818 816 816 814 813 814 815 815 815 816 816 817 817 817 817 817 823 822 824 827 830 831 833 835 837 838 840 843 845 848
819 818 818 819 819 819 819 819 819 819 819 818 817 815 812 810 809 808 809 811 811 811 811 811 812 812 811 811 818 816 824 821 821 824 826 828 829 831 834 836 838 840 843
817 817 816 816 815 815 816 817 818 817 816 816 816 816 814 809 806 804 805 806 807 807 807 807 808 808 807 805 809 815 816 815 819 821 822 822 824 825 828 830 833 834 837
815 816 815 813 813 812 813 814 815 816 815 814 814 815 816 817 810 805 804 805 804 805 804 803 803 802 802 802 802 804 806 809 812 812 815 816 818 820 823 825 827 829 831
814 815 815 813 812 812 812 812 813 814 813 810 810 810 811 811 812 810 805 804 804 803 802 801 800 799 800 799 799 799 801 803 805 806 807 808 810 813 815 818 821 823 825
812 812 812 811 810 810 809 808 809 809 809 809 809 808 809 809 809 810 808 804 802 802 800 798 797 796 796 796 796 795 797 799 800 800 801 802 803 806 809 812 814 816 818
811 808 810 810 810 808 808 807 807 807 807 807 807 806 807 807 806 807 807 804 802 797 796 795 794 793 794 792 792 793 795 795 795 796 797 798 800 801 803 805 808 810 813
808 807 809 809 808 808 807 807 807 806 806 806 806 805 805 804 804 803 803 802 800 796 794 793 791 790 790 790 789 791 793 793 792 791 792 794 796 796 797 799 802 806 808
809 810 809 808 807 807 807 806 805 805 805 805 805 804 802 802 802 801 800 799 796 793 790 789 788 787 787 786 785 787 788 789 790 788 789 789 790 790 791 793 797 799 802
811 810 809 808 808 808 807 807 805 805 805 804 803 802 801 801 800 799 797 797 795 795 790 784 785 785 785 784 783 783 783 783 784 785 784 784 783 784 787 788 791 793 795
811 810 809 808 807 806 806 805 805 804 804 803 802 802 801 799 799 798 796 795 793 792 789 785 784 784 783 782 781 780 780 779 778 778 778 779 779 780 782 783 785 788 789
812 811 810 809 808 807 806 805 804 803 802 801 801 800 799 798 798 796 795 794 792 791 788 783 781 781 779 778 777 777 775 773 772 773 773 774 773 775 776 776 777 780 782
811 810 809 808 808 808 807 805 804 802 800 799 798 798 797 796 795 794 793 792 790 789 787 783 778 777 776 775 773 772 771 769 768 768 768 768 769 770 770 770 771 773 775
813 811 810 809 808 808 806 804 802 801 799 798 798 797 796 795 793 792 791 790 789 787 784 781 777 775 773 772 770 769 767 766 766 764 763 763 764 764 765 766 767 767 768
814 813 811 810 809 809 807 805 803 800 800 799 798 796 795 793 791 790 789 788 787 785 782 779 776 773 771 769 768 766 765 764 763 762 761 760 760 760 760 760 761 762 762
815 813 812 810 809 809 807 806 803 801 800 799 798 796 795 793 792 789 788 787 785 783 780 778 775 772 769 767 766 766 764 763 761 759 756 756 755 755 754 754 755 755 756
814 813 812 810 809 808 808 806 804 802 800 798 796 795 794 792 790 788 786 785 782 780 777 776 773 772 769 766 765 763 762 760 759 757 755 753 753 751 751 751 750 750 751
815 813 811 809 809 807 807 806 803 801 800 798 796 795 793 791 789 787 785 782 780 778 776 774 772 771 767 765 763 760 760 759 758 756 754 750 750 749 749 748 747 747 747
814 813 812 810 809 808 807 805 802 801 800 797 795 794 792 790 788 787 785 783 780 777 774 772 771 770 768 764 761 759 758 757 756 754 754 752 748 747 746 746 745 745 745
814 812 812 811 809 808 807 804 802 801 799 796 794 793 792 789 787 786 784 782 780 777 775 773 772 770 768 765 761 758 757 756 755 754 754 753 750 748 746 745 745 746 745
815 813 811 809 808 806 805 803 803 800 797 794 794 793 791 789 787 785 783 781 778 777 775 774 772 770 768 765 763 760 758 757 756 756 756 753 751 748 746 745 746 746 744